Location: Antioch Baptist Church
(32.6696°N, 85.7327°W)
Time: 12:16:52
(UTC+00:00)

SEDSat Delta rocket - Pass Details

Date: 14 July 2020
Orbit: 533 x 1000 km, 31.4° (Epoch: 08 August)

Event Time Altitude Azimuth Distance (km) Brightness Sun altitude
Rises 03:27:42 0° 262° (W) 3,231 7.1 -26.1°
Reaches altitude 10° 03:30:03 10° 262° (W) 2,375 6.3 -26.4°
Maximum altitude 03:35:47 79° 176° (S) 897 3.6 -27.1°
Enters shadow 03:35:53 79° 163° (SSE) 899 3.6 -27.1°
